| time (UTC) | temp C | wind direction | speed KPH | gust KPH | rain 1hr cm | rain 24hr cm | rain mn cm | humidity % | barometer mb |
| 20260506222042 | 13 | 118 | 9.7 | 17.7 | 0.00 | 2.26 | 1.68 | 55 | 1010.8 |
| 20260506221600 | 13 | 155 | 6.4 | 14.5 | 0.00 | 2.26 | 1.68 | 56 | 1010.8 |
| 20260506221038 | 13 | 140 | 4.8 | 12.9 | 0.00 | 2.26 | 1.68 | 54 | 1010.7 |
| 20260506220540 | 13 | 163 | 3.2 | 12.9 | 0.00 | 2.26 | 1.68 | 56 | 1010.6 |
| 20260506220053 | 13 | 0 | 4.8 | 12.9 | 0.00 | 2.26 | 1.68 | 55 | 1010.5 |
| 20260506215541 | 13 | 150 | 3.2 | 16.1 | 0.00 | 2.26 | 1.68 | 55 | 1010.3 |
| 20260506215041 | 13 | 166 | 6.4 | 16.1 | 0.00 | 2.26 | 1.68 | 54 | 1010.5 |
| 20260506214559 | 13 | 144 | 4.8 | 12.9 | 0.00 | 2.26 | 1.68 | 55 | 1010.2 |
| 20260506214042 | 13 | 140 | 3.2 | 11.3 | 0.00 | 2.26 | 1.68 | 56 | 1010.3 |
| 20260506213546 | 13 | 0 | 1.6 | 11.3 | 0.00 | 2.26 | 1.68 | 55 | 1010.1 |
| 20260506213058 | 13 | 180 | 3.2 | 19.3 | 0.00 | 2.26 | 1.68 | 54 | 1010.2 |
| 20260506212541 | 13 | 112 | 4.8 | 19.3 | 0.00 | 2.26 | 1.68 | 54 | 1010.1 |
| 20260506212043 | 13 | 173 | 3.2 | 12.9 | 0.00 | 2.26 | 1.68 | 56 | 1010.1 |
| 20260506211554 | 13 | 0 | 1.6 | 14.5 | 0.00 | 2.26 | 1.68 | 59 | 1010.0 |
| 20260506211043 | 13 | 177 | 3.2 | 14.5 | 0.00 | 2.26 | 1.68 | 55 | 1009.9 |
| 20260506210541 | 13 | 149 | 6.4 | 14.5 | 0.00 | 2.26 | 1.68 | 54 | 1009.8 |
| 20260506210051 | 13 | 147 | 3.2 | 11.3 | 0.00 | 2.26 | 1.68 | 53 | 1009.8 |
| 20260506205540 | 14 | 154 | 3.2 | 9.7 | 0.00 | 2.26 | 1.68 | 54 | 1009.8 |
| 20260506205040 | 14 | 144 | 1.6 | 17.7 | 0.00 | 2.26 | 1.68 | 53 | 1009.8 |
| 20260506204552 | 13 | 0 | 4.8 | 17.7 | 0.00 | 2.26 | 1.68 | 50 | 1009.6 |
| 20260506204041 | 14 | 131 | 4.8 | 11.3 | 0.00 | 2.26 | 1.68 | 50 | 1009.7 |
| 20260506203540 | 14 | 0 | 1.6 | 9.7 | 0.00 | 2.26 | 1.68 | 52 | 1009.7 |
| 20260506203053 | 14 | 159 | 0.0 | 16.1 | 0.00 | 2.26 | 1.68 | 52 | 1009.7 |
| 20260506202542 | 14 | 217 | 1.6 | 16.1 | 0.00 | 2.26 | 1.68 | 52 | 1009.6 |
| 20260506202046 | 14 | 144 | 1.6 | 16.1 | 0.00 | 2.26 | 1.68 | 51 | 1009.7 |
| 20260506201550 | 14 | 0 | 8.0 | 16.1 | 0.00 | 2.26 | 1.68 | 51 | 1009.8 |
| 20260506201043 | 14 | 134 | 1.6 | 11.3 | 0.00 | 2.26 | 1.68 | 55 | 1009.8 |
| 20260506200542 | 14 | 0 | 3.2 | 11.3 | 0.00 | 2.26 | 1.68 | 54 | 1009.7 |
| 20260506200051 | 14 | 0 | 1.6 | 14.5 | 0.00 | 2.26 | 1.68 | 53 | 1009.7 |
| 20260506195539 | 14 | 246 | 4.8 | 14.5 | 0.00 | 2.26 | 1.68 | 53 | 1009.7 |
| 20260506195040 | 14 | 140 | 4.8 | 14.5 | 0.00 | 2.26 | 1.68 | 50 | 1009.6 |
| 20260506194549 | 14 | 117 | 1.6 | 14.5 | 0.00 | 2.26 | 1.68 | 51 | 1009.7 |
| 20260506194038 | 14 | 129 | 8.0 | 14.5 | 0.00 | 2.26 | 1.68 | 50 | 1009.6 |
| 20260506193541 | 14 | 125 | 4.8 | 12.9 | 0.00 | 2.26 | 1.68 | 49 | 1009.6 |
| 20260506193054 | 15 | 186 | 1.6 | 11.3 | 0.00 | 2.26 | 1.68 | 48 | 1009.6 |
| 20260506192540 | 15 | 171 | 3.2 | 12.9 | 0.00 | 2.26 | 1.68 | 56 | 1009.6 |
| 20260506192039 | 15 | 267 | 0.0 | 12.9 | 0.00 | 2.26 | 1.68 | 53 | 1009.6 |
| 20260506191559 | 14 | 114 | 1.6 | 12.9 | 0.00 | 2.26 | 1.68 | 56 | 1009.7 |
| 20260506191043 | 13 | 0 | 0.0 | 14.5 | 0.00 | 2.26 | 1.68 | 53 | 1009.8 |
| 20260506190540 | 13 | 112 | 3.2 | 14.5 | 0.00 | 2.26 | 1.68 | 53 | 1009.8 |
| 20260506190053 | 13 | 140 | 3.2 | 14.5 | 0.00 | 2.26 | 1.68 | 54 | 1009.9 |
| 20260506185540 | 14 | 126 | 4.8 | 19.3 | 0.00 | 2.26 | 1.68 | 52 | 1010.0 |
| 20260506185042 | 13 | 186 | 4.8 | 19.3 | 0.00 | 2.26 | 1.68 | 54 | 1009.9 |
| 20260506184557 | 13 | 165 | 3.2 | 11.3 | 0.00 | 2.26 | 1.68 | 56 | 1010.0 |
| 20260506184042 | 13 | 129 | 0.0 | 8.0 | 0.00 | 2.26 | 1.68 | 55 | 1009.9 |
| 20260506183542 | 13 | 148 | 0.0 | 9.7 | 0.00 | 2.26 | 1.68 | 56 | 1009.8 |
| 20260506183101 | 13 | 0 | 0.0 | 9.7 | 0.00 | 2.26 | 1.68 | 56 | 1009.8 |
| 20260506182544 | 13 | 138 | 1.6 | 9.7 | 0.00 | 2.26 | 1.68 | 59 | 1009.8 |
| 20260506182039 | 13 | 150 | 1.6 | 12.9 | 0.00 | 2.26 | 1.68 | 56 | 1009.9 |
| 20260506181604 | 13 | 0 | 4.8 | 12.9 | 0.00 | 2.26 | 1.68 | 58 | 1010.1 |
| 20260506181040 | 13 | 134 | 4.8 | 12.9 | 0.00 | 2.26 | 1.68 | 60 | 1010.1 |
| 20260506180542 | 13 | 158 | 6.4 | 19.3 | 0.00 | 2.26 | 1.68 | 55 | 1010.0 |
| 20260506180051 | 13 | 0 | 3.2 | 19.3 | 0.00 | 2.26 | 1.68 | 55 | 1009.9 |
| 20260506175539 | 13 | 140 | 3.2 | 14.5 | 0.00 | 2.26 | 1.68 | 56 | 1009.9 |
| 20260506175041 | 13 | 0 | 3.2 | 17.7 | 0.00 | 2.26 | 1.68 | 57 | 1009.8 |
| 20260506174550 | 13 | 69 | 4.8 | 17.7 | 0.00 | 2.26 | 1.68 | 59 | 1009.8 |
| 20260506174039 | 13 | 144 | 12.9 | 17.7 | 0.00 | 2.26 | 1.68 | 57 | 1009.8 |
| 20260506173539 | 13 | 207 | 1.6 | 9.7 | 0.00 | 2.26 | 1.68 | 58 | 1009.9 |
| 20260506173116 | 13 | 159 | 0.0 | 11.3 | 0.00 | 2.26 | 1.68 | 67 | 1009.8 |
| 20260506172543 | 13 | 138 | 3.2 | 12.9 | 0.00 | 2.26 | 1.68 | 64 | 1009.9 |
| 20260506172042 | 13 | 0 | 3.2 | 12.9 | 0.00 | 2.26 | 1.68 | 61 | 1009.9 |
| 20260506171554 | 12 | 196 | 4.8 | 12.9 | 0.00 | 2.26 | 1.68 | 65 | 1010.1 |
| 20260506171043 | 12 | 126 | 4.8 | 19.3 | 0.00 | 2.26 | 1.68 | 66 | 1010.4 |
| 20260506170543 | 12 | 0 | 3.2 | 19.3 | 0.00 | 2.26 | 1.68 | 67 | 1010.2 |
| 20260506170105 | 13 | 121 | 6.4 | 17.7 | 0.00 | 2.26 | 1.68 | 66 | 1010.0 |
| 20260506165539 | 13 | 0 | 3.2 | 17.7 | 0.00 | 2.26 | 1.68 | 67 | 1010.0 |
| 20260506165040 | 12 | 147 | 8.0 | 17.7 | 0.00 | 2.26 | 1.68 | 70 | 1009.8 |
| 20260506164551 | 12 | 153 | 8.0 | 16.1 | 0.00 | 2.26 | 1.68 | 70 | 1009.8 |
| 20260506164043 | 12 | 140 | 1.6 | 11.3 | 0.00 | 2.26 | 1.68 | 72 | 1009.8 |
| 20260506163539 | 12 | 0 | 0.0 | 11.3 | 0.00 | 2.26 | 1.68 | 74 | 1009.9 |
| 20260506163056 | 12 | 119 | 0.0 | 14.5 | 0.00 | 2.26 | 1.68 | 71 | 1010.0 |
| 20260506162539 | 12 | 0 | 1.6 | 14.5 | 0.00 | 2.26 | 1.68 | 74 | 1010.0 |
| 20260506162043 | 11 | 124 | 1.6 | 12.9 | 0.00 | 2.26 | 1.68 | 77 | 1010.0 |
| 20260506161553 | 11 | 133 | 3.2 | 12.9 | 0.00 | 2.26 | 1.68 | 77 | 1009.9 |
| 20260506161043 | 11 | 212 | 0.0 | 6.4 | 0.00 | 2.26 | 1.68 | 78 | 1010.0 |
| 20260506160543 | 11 | 0 | 0.0 | 8.0 | 0.00 | 2.26 | 1.68 | 79 | 1010.0 |
| 20260506160053 | 11 | 0 | 1.6 | 8.0 | 0.00 | 2.26 | 1.68 | 79 | 1010.0 |
| 20260506155544 | 11 | 136 | 1.6 | 9.7 | 0.00 | 2.26 | 1.68 | 79 | 1009.9 |
| 20260506155046 | 10 | 0 | 0.0 | 9.7 | 0.00 | 2.26 | 1.68 | 78 | 1009.8 |
| 20260506154611 | 11 | 304 | 0.0 | 6.4 | 0.00 | 2.26 | 1.68 | 80 | 1009.8 |
| 20260506154043 | 11 | 275 | 1.6 | 6.4 | 0.00 | 2.26 | 1.68 | 82 | 1009.6 |
| 20260506153539 | 10 | 0 | 0.0 | 11.3 | 0.00 | 2.26 | 1.68 | 80 | 1009.7 |
| 20260506153049 | 10 | 242 | 3.2 | 12.9 | 0.00 | 2.26 | 1.68 | 82 | 1009.8 |
| 20260506152542 | 10 | 164 | 6.4 | 12.9 | 0.00 | 2.26 | 1.68 | 81 | 1009.9 |
| 20260506152042 | 10 | 139 | 6.4 | 12.9 | 0.00 | 2.26 | 1.68 | 83 | 1009.5 |
| 20260506151552 | 10 | 119 | 1.6 | 16.1 | 0.00 | 2.26 | 1.68 | 84 | 1009.4 |
| 20260506151042 | 9 | 213 | 1.6 | 16.1 | 0.00 | 2.26 | 1.68 | 85 | 1009.3 |
| 20260506150542 | 9 | 179 | 1.6 | 11.3 | 0.00 | 2.26 | 1.68 | 86 | 1009.1 |
| 20260506150050 | 9 | 0 | 3.2 | 11.3 | 0.00 | 2.26 | 1.68 | 86 | 1009.1 |
| 20260506145540 | 9 | 0 | 4.8 | 12.9 | 0.00 | 2.26 | 1.68 | 86 | 1009.0 |
| 20260506145044 | 9 | 152 | 4.8 | 12.9 | 0.00 | 2.26 | 1.68 | 87 | 1009.1 |
| 20260506144556 | 9 | 131 | 1.6 | 9.7 | 0.00 | 2.26 | 1.68 | 88 | 1009.0 |
| 20260506144041 | 9 | 0 | 1.6 | 8.0 | 0.00 | 2.26 | 1.68 | 88 | 1009.1 |
| 20260506143542 | 9 | 199 | 1.6 | 17.7 | 0.00 | 2.26 | 1.68 | 87 | 1009.1 |
| 20260506143053 | 9 | 169 | 6.4 | 17.7 | 0.00 | 2.26 | 1.68 | 88 | 1009.0 |
| 20260506142545 | 9 | 132 | 4.8 | 9.7 | 0.00 | 2.26 | 1.68 | 89 | 1009.0 |
| 20260506142039 | 9 | 0 | 3.2 | 12.9 | 0.00 | 2.26 | 1.68 | 89 | 1008.8 |
| 20260506141551 | 9 | 226 | 1.6 | 17.7 | 0.00 | 2.26 | 1.68 | 89 | 1008.5 |
| 20260506141041 | 9 | 249 | 1.6 | 17.7 | 0.00 | 2.26 | 1.68 | 89 | 1008.6 |
| 20260506140545 | 9 | 233 | 4.8 | 14.5 | 0.00 | 2.26 | 1.68 | 89 | 1008.8 |
| 20260506140051 | 9 | 173 | 6.4 | 12.9 | 0.00 | 2.26 | 1.68 | 90 | 1008.5 |
| 20260506135541 | 9 | 116 | 1.6 | 8.0 | 0.00 | 2.26 | 1.68 | 90 | 1008.4 |
| 20260506135039 | 9 | 157 | 1.6 | 8.0 | 0.00 | 2.26 | 1.68 | 90 | 1008.4 |
| 20260506134551 | 9 | 0 | 3.2 | 8.0 | 0.00 | 2.26 | 1.68 | 90 | 1008.2 |
| 20260506134042 | 9 | 184 | 3.2 | 8.0 | 0.00 | 2.26 | 1.68 | 91 | 1008.3 |
| 20260506133539 | 8 | 0 | 0.0 | 11.3 | 0.00 | 2.26 | 1.68 | 92 | 1008.2 |
| 20260506133102 | 8 | 0 | 1.6 | 11.3 | 0.00 | 2.26 | 1.68 | 92 | 1008.2 |
| 20260506132539 | 8 | 139 | 0.0 | 4.8 | 0.00 | 2.26 | 1.68 | 92 | 1008.4 |
| 20260506132040 | 8 | 157 | 0.0 | 4.8 | 0.00 | 2.26 | 1.68 | 93 | 1008.2 |
| 20260506131548 | 8 | 0 | 0.0 | 3.2 | 0.00 | 2.26 | 1.68 | 93 | 1008.1 |
| 20260506131042 | 8 | 180 | 0.0 | 3.2 | 0.03 | 2.26 | 1.68 | 93 | 1007.9 |
| 20260506130542 | 8 | 0 | 0.0 | 6.4 | 0.03 | 2.26 | 1.68 | 93 | 1007.9 |
| 20260506130047 | 8 | 286 | 0.0 | 8.0 | 0.03 | 2.26 | 1.68 | 93 | 1008.1 |
| 20260506125538 | 8 | 142 | 1.6 | 8.0 | 0.03 | 2.26 | 1.68 | 93 | 1008.1 |
| 20260506125041 | 8 | 0 | 1.6 | 8.0 | 0.03 | 2.26 | 1.68 | 94 | 1008.0 |
| 20260506124549 | 8 | 188 | 0.0 | 6.4 | 0.03 | 2.26 | 1.68 | 94 | 1007.8 |
| 20260506124040 | 7 | 0 | 0.0 | 9.7 | 0.03 | 2.26 | 1.68 | 93 | 1007.5 |
| 20260506123539 | 7 | 0 | 0.0 | 9.7 | 0.03 | 2.26 | 1.68 | 94 | 1007.3 |
| 20260506123050 | 7 | 196 | 0.0 | 4.8 | 0.03 | 2.26 | 1.68 | 93 | 1007.3 |
| 20260506122539 | 7 | 0 | 0.0 | 4.8 | 0.03 | 2.26 | 1.68 | 93 | 1007.6 |
| 20260506122039 | 7 | 0 | 0.0 | 6.4 | 0.05 | 2.26 | 1.68 | 93 | 1007.7 |
| 20260506121551 | 7 | 0 | 0.0 | 6.4 | 0.05 | 2.26 | 1.68 | 93 | 1007.6 |
| 20260506121040 | 7 | 217 | 0.0 | 3.2 | 0.05 | 2.24 | 1.65 | 94 | 1007.5 |
| 20260506120540 | 7 | 0 | 0.0 | 8.0 | 0.05 | 2.24 | 1.65 | 94 | 1007.2 |
| 20260506120052 | 7 | 0 | 0.0 | 8.0 | 0.05 | 2.24 | 1.65 | 94 | 1007.2 |
| 20260506115542 | 7 | 217 | 1.6 | 6.4 | 0.05 | 2.24 | 1.65 | 94 | 1007.4 |
| 20260506115041 | 7 | 0 | 0.0 | 6.4 | 0.05 | 2.24 | 1.65 | 94 | 1007.2 |
| 20260506114549 | 7 | 0 | 1.6 | 6.4 | 0.05 | 2.24 | 1.65 | 93 | 1006.9 |
| 20260506114041 | 7 | 0 | 1.6 | 6.4 | 0.05 | 2.24 | 1.65 | 93 | 1006.7 |
| 20260506113539 | 7 | 0 | 0.0 | 6.4 | 0.05 | 2.24 | 1.65 | 93 | 1006.7 |
| 20260506113049 | 7 | 0 | 0.0 | 4.8 | 0.05 | 2.24 | 1.65 | 93 | 1006.8 |
| 20260506112540 | 7 | 218 | 0.0 | 8.0 | 0.03 | 2.21 | 1.63 | 93 | 1006.7 |
| 20260506112038 | 7 | 0 | 0.0 | 8.0 | 0.03 | 2.21 | 1.63 | 93 | 1006.8 |
| 20260506111547 | 7 | 0 | 0.0 | 8.0 | 0.03 | 2.21 | 1.63 | 93 | 1006.8 |
| 20260506111041 | 7 | 0 | 0.0 | 8.0 | 0.00 | 2.18 | 1.60 | 93 | 1006.8 |
| 20260506110540 | 7 | 136 | 0.0 | 8.0 | 0.00 | 2.18 | 1.60 | 93 | 1006.9 |
| 20260506110050 | 7 | 180 | 0.0 | 11.3 | 0.00 | 2.18 | 1.60 | 93 | 1006.7 |
| 20260506105539 | 7 | 0 | 0.0 | 11.3 | 0.00 | 2.18 | 1.60 | 93 | 1006.4 |
| 20260506105041 | 7 | 0 | 1.6 | 11.3 | 0.00 | 2.18 | 1.60 | 93 | 1006.5 |
| 20260506104610 | 7 | 0 | 1.6 | 4.8 | 0.00 | 2.18 | 1.60 | 94 | 1006.5 |
| 20260506104041 | 7 | 218 | 0.0 | 6.4 | 0.00 | 2.18 | 1.60 | 94 | 1005.9 |
| 20260506103542 | 7 | 202 | 0.0 | 6.4 | 0.03 | 2.18 | 1.60 | 94 | 1005.5 |
| 20260506103046 | 7 | 0 | 0.0 | 4.8 | 0.05 | 2.18 | 1.60 | 94 | 1005.3 |
| 20260506102540 | 7 | 0 | 0.0 | 4.8 | 0.05 | 2.18 | 1.60 | 94 | 1005.2 |
| 20260506102043 | 7 | 0 | 0.0 | 3.2 | 0.08 | 2.18 | 1.60 | 93 | 1005.2 |
| 20260506101550 | 7 | 0 | 0.0 | 4.8 | 0.10 | 2.18 | 1.60 | 93 | 1005.4 |
| 20260506101039 | 7 | 0 | 0.0 | 11.3 | 0.10 | 2.18 | 1.60 | 93 | 1005.3 |
| 20260506100541 | 7 | 327 | 1.6 | 11.3 | 0.15 | 2.18 | 1.60 | 93 | 1005.8 |
| 20260506100046 | 7 | 246 | 1.6 | 8.0 | 0.18 | 2.18 | 1.60 | 93 | 1005.6 |
| 20260506095539 | 7 | 236 | 1.6 | 6.4 | 0.23 | 2.18 | 1.60 | 93 | 1005.7 |
| 20260506095040 | 7 | 210 | 0.0 | 4.8 | 0.25 | 2.18 | 1.60 | 93 | 1005.5 |
| 20260506094546 | 7 | 226 | 0.0 | 4.8 | 0.28 | 2.18 | 1.60 | 93 | 1005.5 |
| 20260506094038 | 7 | 271 | 0.0 | 4.8 | 0.28 | 2.16 | 1.57 | 93 | 1005.3 |
| 20260506093539 | 7 | 0 | 0.0 | 3.2 | 0.30 | 2.16 | 1.57 | 93 | 1005.2 |
| 20260506093051 | 7 | 0 | 0.0 | 6.4 | 0.30 | 2.13 | 1.55 | 93 | 1005.4 |
| 20260506092539 | 7 | 0 | 0.0 | 9.7 | 0.33 | 2.13 | 1.55 | 93 | 1005.8 |
| 20260506092039 | 7 | 232 | 0.0 | 14.5 | 0.30 | 2.11 | 1.52 | 93 | 1006.0 |
| 20260506091548 | 7 | 140 | 3.2 | 14.5 | 0.28 | 2.08 | 1.47 | 93 | 1006.0 |
| 20260506091042 | 7 | 155 | 1.6 | 14.5 | 0.28 | 2.08 | 1.47 | 92 | 1005.9 |
| 20260506090541 | 8 | 208 | 0.0 | 19.3 | 0.23 | 2.03 | 1.45 | 92 | 1005.8 |
| 20260506090050 | 8 | 213 | 3.2 | 19.3 | 0.23 | 2.01 | 1.42 | 92 | 1005.7 |
| 20260506085541 | 8 | 146 | 3.2 | 17.7 | 0.20 | 1.96 | 1.37 | 92 | 1005.7 |
| 20260506085041 | 8 | 167 | 4.8 | 17.7 | 0.23 | 1.93 | 1.32 | 92 | 1005.7 |
| 20260506084547 | 8 | 0 | 1.6 | 16.1 | 0.23 | 1.88 | 1.30 | 92 | 1005.8 |
| 20260506084039 | 8 | 161 | 3.2 | 19.3 | 0.28 | 1.88 | 1.30 | 92 | 1005.7 |
| 20260506083539 | 9 | 173 | 6.4 | 19.3 | 0.33 | 1.85 | 1.27 | 93 | 1005.5 |
| 20260506083052 | 9 | 203 | 3.2 | 14.5 | 0.36 | 1.83 | 1.24 | 93 | 1005.4 |
| 20260506082539 | 9 | 0 | 0.0 | 6.4 | 0.41 | 1.80 | 1.22 | 93 | 1005.1 |
| 20260506082041 | 10 | 0 | 0.0 | 6.4 | 0.46 | 1.80 | 1.22 | 93 | 1004.8 |
| 20260506081558 | 10 | 0 | 1.6 | 6.4 | 0.48 | 1.80 | 1.22 | 93 | 1004.7 |
| 20260506081043 | 10 | 0 | 0.0 | 6.4 | 0.53 | 1.80 | 1.22 | 93 | 1004.6 |
| 20260506080540 | 10 | 0 | 0.0 | 6.4 | 0.58 | 1.80 | 1.22 | 93 | 1004.6 |
| 20260506073051 | 10 | 206 | 1.6 | 11.3 | 0.53 | 1.47 | 0.89 | 93 | 1004.5 |
| 20260506072542 | 10 | 0 | 1.6 | 8.0 | 0.51 | 1.40 | 0.81 | 93 | 1004.5 |
| 20260506072040 | 11 | 126 | 1.6 | 16.1 | 0.48 | 1.32 | 0.76 | 93 | 1004.5 |
| 20260506071610 | 11 | 165 | 0.0 | 16.1 | 0.46 | 1.32 | 0.74 | 93 | 1004.3 |
| 20260506071041 | 11 | 157 | 6.4 | 16.1 | 0.41 | 1.27 | 0.69 | 93 | 1004.4 |
| 20260506070541 | 12 | 180 | 0.0 | 9.7 | 0.36 | 1.22 | 0.64 | 93 | 1004.2 |
| 20260506062040 | 14 | 0 | 0.0 | 1.6 | 0.03 | 0.86 | 0.28 | 94 | 1004.6 |
| 20260506061551 | 14 | 0 | 0.0 | 1.6 | 0.03 | 0.86 | 0.28 | 94 | 1004.6 |
| 20260506061042 | 14 | 0 | 0.0 | 0.0 | 0.03 | 0.86 | 0.28 | 94 | 1004.6 |
| 20260506060545 | 14 | 0 | 0.0 | 1.6 | 0.03 | 0.86 | 0.28 | 94 | 1004.7 |
| 20260506060104 | 14 | 0 | 0.0 | 1.6 | 0.03 | 0.86 | 0.28 | 94 | 1004.6 |
| 20260506051039 | 14 | 0 | 0.0 | 1.6 | 0.18 | 0.84 | 0.25 | 94 | 1005.4 |
| 20260506050539 | 14 | 0 | 0.0 | 6.4 | 0.20 | 0.84 | 0.25 | 94 | 1005.6 |
| 20260506045039 | 14 | 0 | 0.0 | 6.4 | 0.30 | 0.84 | 0.25 | 94 | 1005.7 |
| 20260506044605 | 14 | 0 | 0.0 | 4.8 | 0.30 | 0.84 | 0.25 | 94 | 1005.8 |
| 20260506044040 | 14 | 38 | 0.0 | 4.8 | 0.30 | 0.81 | 0.23 | 94 | 1005.9 |
| 20260506043539 | 14 | 352 | 0.0 | 4.8 | 0.30 | 0.79 | 0.20 | 94 | 1005.9 |
| 20260506043055 | 14 | 0 | 0.0 | 4.8 | 0.33 | 0.79 | 0.20 | 94 | 1005.9 |
| 20260506042539 | 14 | 0 | 0.0 | 3.2 | 0.28 | 0.74 | 0.15 | 94 | 1006.1 |
| 20260506042038 | 14 | 0 | 0.0 | 4.8 | 0.25 | 0.71 | 0.13 | 94 | 1006.3 |
| 20260506041553 | 14 | 0 | 0.0 | 4.8 | 0.25 | 0.69 | 0.10 | 94 | 1006.2 |
| 20260506041039 | 14 | 0 | 0.0 | 3.2 | 0.25 | 0.66 | 0.08 | 94 | 1006.2 |
| 20260506040539 | 14 | 0 | 0.0 | 1.6 | 0.23 | 0.61 | 0.03 | 94 | 1006.4 |
| 20260506040053 | 14 | 0 | 0.0 | 0.0 | 0.25 | 0.61 | 0.03 | 94 | 1006.3 |
| 20260506035540 | 14 | 0 | 0.0 | 1.6 | 0.23 | 0.56 | 0.56 | 94 | 1006.4 |
| 20260506035040 | 14 | 0 | 0.0 | 1.6 | 0.20 | 0.53 | 0.53 | 94 | 1006.4 |
| 20260506034557 | 14 | 0 | 0.0 | 3.2 | 0.20 | 0.51 | 0.51 | 94 | 1006.4 |
| 20260506034040 | 14 | 0 | 0.0 | 3.2 | 0.23 | 0.51 | 0.51 | 94 | 1006.4 |
| 20260506033542 | 14 | 0 | 0.0 | 1.6 | 0.25 | 0.48 | 0.48 | 94 | 1006.4 |
| 20260506033050 | 15 | 0 | 0.0 | 1.6 | 0.23 | 0.46 | 0.46 | 93 | 1006.5 |
| 20260506032540 | 14 | 0 | 0.0 | 1.6 | 0.25 | 0.46 | 0.46 | 93 | 1006.5 |
| 20260506032039 | 15 | 0 | 0.0 | 1.6 | 0.28 | 0.46 | 0.46 | 93 | 1006.5 |
| 20260506031552 | 15 | 0 | 0.0 | 1.6 | 0.25 | 0.43 | 0.43 | 93 | 1006.5 |
| 20260506031041 | 14 | 0 | 0.0 | 1.6 | 0.25 | 0.41 | 0.41 | 93 | 1006.4 |
| 20260506030541 | 15 | 0 | 0.0 | 1.6 | 0.23 | 0.38 | 0.38 | 93 | 1006.4 |
| 20260506030052 | 15 | 154 | 0.0 | 1.6 | 0.20 | 0.36 | 0.36 | 93 | 1006.6 |
| 20260506025539 | 15 | 0 | 0.0 | 1.6 | 0.20 | 0.33 | 0.33 | 93 | 1006.6 |
| 20260506025039 | 15 | 143 | 0.0 | 3.2 | 0.18 | 0.30 | 0.30 | 93 | 1006.7 |
| 20260506024549 | 15 | 0 | 0.0 | 4.8 | 0.18 | 0.30 | 0.30 | 93 | 1006.6 |
| 20260506024041 | 15 | 0 | 0.0 | 4.8 | 0.13 | 0.25 | 0.25 | 93 | 1006.6 |
| 20260506023540 | 15 | 0 | 0.0 | 4.8 | 0.10 | 0.23 | 0.23 | 93 | 1006.7 |
| 20260506023048 | 15 | 135 | 1.6 | 3.2 | 0.10 | 0.23 | 0.23 | 93 | 1006.6 |
| 20260506022541 | 15 | 147 | 0.0 | 6.4 | 0.08 | 0.20 | 0.20 | 93 | 1006.6 |
| 20260506022040 | 15 | 0 | 0.0 | 9.7 | 0.05 | 0.18 | 0.18 | 93 | 1006.5 |
| 20260506021557 | 15 | 0 | 0.0 | 9.7 | 0.05 | 0.18 | 0.18 | 93 | 1006.5 |
| 20260506021040 | 15 | 150 | 1.6 | 9.7 | 0.03 | 0.15 | 0.15 | 93 | 1006.6 |
| 20260506020539 | 15 | 0 | 0.0 | 1.6 | 0.03 | 0.15 | 0.15 | 93 | 1006.5 |
| 20260506020051 | 15 | 0 | 0.0 | 6.4 | 0.03 | 0.15 | 0.15 | 93 | 1006.4 |
| 20260506015539 | 15 | 0 | 0.0 | 6.4 | 0.00 | 0.13 | 0.13 | 93 | 1006.6 |
| 20260506015040 | 15 | 332 | 0.0 | 6.4 | 0.00 | 0.13 | 0.13 | 92 | 1006.6 |
| 20260506014550 | 15 | 0 | 0.0 | 3.2 | 0.00 | 0.13 | 0.13 | 93 | 1006.7 |
| 20260506014041 | 15 | 0 | 0.0 | 1.6 | 0.00 | 0.13 | 0.13 | 93 | 1006.6 |
| 20260506013539 | 15 | 0 | 0.0 | 1.6 | 0.00 | 0.13 | 0.13 | 92 | 1006.5 |
| 20260506013048 | 15 | 0 | 0.0 | 1.6 | 0.00 | 0.13 | 0.13 | 92 | 1006.5 |
| 20260506012539 | 15 | 0 | 0.0 | 0.0 | 0.00 | 0.13 | 0.13 | 92 | 1006.4 |
| 20260506012038 | 15 | 0 | 0.0 | 0.0 | 0.00 | 0.13 | 0.13 | 92 | 1006.5 |
| 20260506011555 | 15 | 0 | 0.0 | 1.6 | 0.00 | 0.13 | 0.13 | 92 | 1006.4 |
| 20260506011043 | 15 | 0 | 0.0 | 1.6 | 0.00 | 0.13 | 0.13 | 92 | 1006.4 |
| 20260506010540 | 15 | 0 | 0.0 | 0.0 | 0.00 | 0.13 | 0.13 | 92 | 1006.3 |
| 20260506010056 | 15 | 0 | 0.0 | 3.2 | 0.03 | 0.13 | 0.13 | 91 | 1006.3 |
| 20260506005539 | 15 | 0 | 0.0 | 3.2 | 0.03 | 0.13 | 0.13 | 91 | 1006.3 |
| 20260506005040 | 15 | 0 | 0.0 | 3.2 | 0.05 | 0.13 | 0.13 | 91 | 1006.4 |
| 20260506004551 | 15 | 0 | 0.0 | 6.4 | 0.13 | 0.13 | 0.13 | 91 | 1006.4 |
| 20260506004040 | 15 | 0 | 0.0 | 6.4 | 0.13 | 0.13 | 0.13 | 91 | 1006.4 |
| 20260506003540 | 15 | 152 | 1.6 | 6.4 | 0.13 | 0.13 | 0.13 | 91 | 1006.4 |
| 20260506003046 | 15 | 138 | 1.6 | 6.4 | 0.13 | 0.13 | 0.13 | 91 | 1006.6 |
| 20260506002539 | 15 | 149 | 0.0 | 4.8 | 0.13 | 0.13 | 0.13 | 91 | 1006.4 |
| 20260506002040 | 15 | 0 | 0.0 | 4.8 | 0.13 | 0.13 | 0.13 | 90 | 1006.4 |
| 20260506001555 | 15 | 182 | 0.0 | 4.8 | 0.13 | 0.13 | 0.13 | 90 | 1006.5 |
| 20260506001039 | 15 | 124 | 0.0 | 9.7 | 0.13 | 0.13 | 0.13 | 90 | 1006.6 |
| 20260506000540 | 15 | 0 | 0.0 | 9.7 | 0.13 | 0.13 | 0.13 | 89 | 1006.6 |
| 20260506000049 | 15 | 146 | 1.6 | 12.9 | 0.10 | 0.10 | 0.10 | 89 | 1006.6 |
| 20260505235539 | 15 | 181 | 1.6 | 12.9 | 0.10 | 0.10 | 0.10 | 88 | 1006.7 |
| 20260505235040 | 15 | 144 | 4.8 | 25.7 | 0.08 | 0.08 | 0.08 | 87 | 1006.6 |
| 20260505234610 | 15 | 152 | 9.7 | 25.7 | 0.00 | 0.00 | 0.00 | 85 | 1006.6 |
| 20260505234043 | 16 | 121 | 6.4 | 22.5 | 0.00 | 0.00 | 0.00 | 84 | 1006.3 |
| 20260505233540 | 16 | 17 | 12.9 | 22.5 | 0.00 | 0.00 | 0.00 | 83 | 1006.3 |
| 20260505233052 | 16 | 149 | 9.7 | 27.4 | 0.00 | 0.00 | 0.00 | 80 | 1006.2 |
| 20260505232540 | 17 | 167 | 9.7 | 35.4 | 0.00 | 0.00 | 0.00 | 77 | 1006.2 |
| 20260505232039 | 18 | 145 | 14.5 | 35.4 | 0.00 | 0.00 | 0.00 | 72 | 1006.2 |
| 20260505231554 | 20 | 147 | 12.9 | 22.5 | 0.00 | 0.00 | 0.00 | 66 | 1006.2 |
| 20260505231042 | 20 | 140 | 3.2 | 11.3 | 0.00 | 0.00 | 0.00 | 60 | 1005.9 |
| 20260505230539 | 20 | 118 | 0.0 | 11.3 | 0.00 | 0.00 | 0.00 | 59 | 1005.8 |
| 20260505230052 | 20 | 59 | 1.6 | 11.3 | 0.00 | 0.00 | 0.00 | 58 | 1005.7 |
| 20260505225540 | 20 | 55 | 0.0 | 16.1 | 0.00 | 0.00 | 0.00 | 58 | 1005.6 |
| 20260505225039 | 20 | 0 | 3.2 | 16.1 | 0.00 | 0.00 | 0.00 | 57 | 1005.7 |
| 20260505224552 | 20 | 360 | 4.8 | 16.1 | 0.00 | 0.00 | 0.00 | 58 | 1005.6 |
| 20260505224039 | 20 | 54 | 4.8 | 16.1 | 0.00 | 0.00 | 0.00 | 58 | 1005.6 |
| 20260505223542 | 20 | 13 | 1.6 | 16.1 | 0.00 | 0.00 | 0.00 | 58 | 1005.8 |
| 20260505223104 | 21 | 39 | 3.2 | 20.9 | 0.00 | 0.00 | 0.00 | 57 | 1005.6 |
| 20260505222539 | 21 | 109 | 6.4 | 20.9 | 0.00 | 0.00 | 0.00 | 58 | 1005.5 |